Find STARLINK-37979

NORAD ID: 799501036 Int'l Des: 2026-146N Constellation: starlink operational

現在のビュー

3D地球を読み込み中...

About STARLINK-37979

STARLINK-37979 (NORAD 799501036) is a starlink constellation satellite launched Jun 12, 2026

STARLINK-37979について

説明を読み込み中...

次回通過

Passes for default location (London). Set your location on the main map for personalized predictions.

高度履歴

Loading altitude history...

軌道要素

1 99999C 2026146N 26176.37548610 .00675210 00000-0 103760-3 0 1760
2 99999 97.2855 22.0353 0011161 278.1990 91.3215 16.03841953 16
Epoch: Jun 25, 2026 • Age: 9 hours